This is the latest recevied weather packets stored in our database for station/object KK4EQF. If no packets are shown the sender has not sent any weather packets the latest 1 day(s).
| Time | Temp. | Humidity | Pressure | Rain* | Wind** | Luminosity | Snow |
|---|---|---|---|---|---|---|---|
| 1777992605 | 26.67° C | 27% | 1016.4 hPa | 0 mm | 0.45 m/s, 70° | - | - |
| 1777992542 | 26.67° C | 26% | 1016.4 hPa | 0 mm | 0.45 m/s, 105° | - | - |
| 1777992483 | 26.67° C | 26% | 1016.3 hPa | 0 mm | 0.45 m/s, 32° | - | - |
| 1777992421 | 26.67° C | 27% | 1016.3 hPa | 0 mm | 0.45 m/s, 32° | - | - |
| 1777992359 | 26.67° C | 26% | 1016.3 hPa | 0 mm | 0.45 m/s, 34° | - | - |
| 1777992298 | 26.67° C | 25% | 1016.3 hPa | 0 mm | 0.45 m/s, 34° | - | - |
| 1777992243 | 26.67° C | 25% | 1016.3 hPa | 0 mm | 0.45 m/s, 24° | - | - |
| 1777992174 | 26.67° C | 25% | 1016.3 hPa | 0 mm | 0.45 m/s, 24° | - | - |
| 1777992117 | 26.67° C | 24% | 1016.3 hPa | 0 mm | 0.45 m/s, 24° | - | - |
| 1777992056 | 26.67° C | 24% | 1016.3 hPa | 0 mm | 0.45 m/s, 55° | - | - |
| 1777991993 | 26.67° C | 26% | 1016.3 hPa | 0 mm | 0.45 m/s, 55° | - | - |
| 1777991932 | 26.67° C | 25% | 1016.3 hPa | 0 mm | 0.45 m/s, 56° | - | - |
| 1777991875 | 26.67° C | 25% | 1016.3 hPa | 0 mm | 0.45 m/s, 62° | - | - |
| 1777991810 | 26.67° C | 24% | 1016.3 hPa | 0 mm | 0.45 m/s, 78° | - | - |
| 1777991748 | 26.67° C | 23% | 1016.3 hPa | 0 mm | 0.45 m/s, 54° | - | - |
| 1777991691 | 26.11° C | 23% | 1016.3 hPa | 0 mm | 0.45 m/s, 67° | - | - |
| 1777991626 | 26.11° C | 21% | 1016.3 hPa | 0 mm | 0.45 m/s, 52° | - | - |
| 1777991568 | 26.11° C | 17% | 1016.3 hPa | 0 mm | 0.45 m/s, 37° | - | - |
| 1777991505 | 26.11° C | 17% | 1016.2 hPa | 0 mm | 0.45 m/s, 23° | - | - |
| 1777991445 | 26.11° C | 18% | 1016.3 hPa | 0 mm | 0.45 m/s, 23° | - | - |
| 1777991376 | 26.11° C | 19% | 1016.3 hPa | 0 mm | 0.89 m/s, 23° | - | - |
| 1777991316 | 26.11° C | 21% | 1016.3 hPa | 0 mm | 0.89 m/s, 23° | - | - |
| 1777991257 | 26.11° C | 22% | 1016.2 hPa | 0 mm | 0.89 m/s, 23° | - | - |
| 1777991196 | 26.11° C | 21% | 1016.3 hPa | 0 mm | 0.89 m/s, 21° | - | - |
| 1777991138 | 26.11° C | 20% | 1016.2 hPa | 0 mm | 0.89 m/s, 55° | - | - |
* Rain latest hour (hover to see other rain measurements)
** Current wind speed in m/s (hover to see current wind gust speed)